Location: Unspecified
(0.0000°N, 0.0000°E)
Time: 16:39:12
(UTC+01:00)

ARIANE DEB (SPELDA) - Visible Passes

Search period start: 03 December 2016 00:00
Search period end: 13 December 2016 00:00
Orbit: 355 x 32940 km, 3.3° (Epoch: 01 December)

Date Brightness Start Highest point End Pass type
(mag) Time Alt. Az. Time Alt. Az. Time Alt. Az.
03 Dec 7.0 04:47:55 21° W 06:36:09 82° WSW 13:45:22 10° E visible
04 Dec 7.7 00:07:08 32° E 00:07:08 32° E 08:32:58 10° E visible
05 Dec 6.8 05:05:59 15° W 06:55:18 75° WSW 14:04:19 10° E visible
06 Dec 7.5 00:25:13 40° E 00:25:13 40° E 08:55:47 10° E visible
07 Dec 6.5 05:24:14 10° W 07:15:06 69° W 14:23:10 10° E visible
08 Dec 7.4 00:43:17 48° E 00:43:17 48° E 09:17:42 10° E visible
08 Dec 1.5 19:29:54 10° W 19:32:49 64° N 19:34:46 14° E visible
09 Dec 6.3 05:44:51 10° W 07:34:54 62° W 14:41:57 10° E visible
10 Dec 7.3 01:01:20 58° ESE 01:01:20 58° ESE 09:38:57 10° E visible
10 Dec 1.3 19:49:12 10° W 19:51:40 70° N 19:52:49 27° E visible
11 Dec 6.1 06:05:56 10° W 07:54:34 55° W 15:00:40 10° E visible
12 Dec 7.2 01:19:24 67° ESE 01:19:24 67° ESE 09:59:41 10° E visible
12 Dec 1.4 20:08:12 10° W 20:10:30 78° N 20:10:53 58° ENE visible
